N60CG KSGJ-MYNN

Flight info

Callsign N60CG
Flight time 1h 30m
Altitude 17000
Route OMN V3 MLB V492 ANGEE FOMGU Y624 ZFP BR65V ZQA
Aircraft TBM9/L-VGDW/C

Departure

Time 2026-05-05 21:39
Airport Northeast Florida Regional Airport (KSGJ)

Arrival

Time 2026-05-05 23:10
Airport Lynden Pindling International Airport (MYNN)
Time Latitude Longitude Altitude Speed Heading
2026-05-05 21:23 29.95452 -81.34216 15 ft 0 kts 279°
2026-05-05 21:34 29.95463 -81.34223 15 ft 6 kts 29°
2026-05-05 21:34 29.95510 -81.34174 14 ft 13 kts 16°
2026-05-05 21:34 29.95583 -81.34120 15 ft 10 kts 42°
2026-05-05 21:34 29.95624 -81.34085 16 ft 7 kts 23°
2026-05-05 21:35 29.95693 -81.34105 16 ft 14 kts 340°
2026-05-05 21:35 29.95809 -81.34154 14 ft 22 kts 339°
2026-05-05 21:35 29.95971 -81.34217 11 ft 26 kts 340°
2026-05-05 21:35 29.96107 -81.34290 11 ft 21 kts 311°
2026-05-05 21:36 29.96208 -81.34450 13 ft 27 kts 306°
2026-05-05 21:36 29.96328 -81.34637 16 ft 29 kts 308°
2026-05-05 21:36 29.96431 -81.34802 19 ft 21 kts 305°
2026-05-05 21:36 29.96519 -81.34833 17 ft 12 kts 32°
2026-05-05 21:37 29.96607 -81.34755 17 ft 19 kts 42°
2026-05-05 21:37 29.96683 -81.34736 16 ft 15 kts 308°
2026-05-05 21:37 29.96753 -81.34859 16 ft 22 kts 303°
2026-05-05 21:37 29.96815 -81.34974 15 ft 12 kts 278°
2026-05-05 21:38 29.96804 -81.35004 14 ft 1 kts 218°
2026-05-05 21:38 29.96786 -81.35019 14 ft 7 kts 217°
2026-05-05 21:38 29.96726 -81.35038 15 ft 12 kts 140°
2026-05-05 21:38 29.96642 -81.34906 15 ft 42 kts 129°
2026-05-05 21:39 29.96364 -81.34482 15 ft 91 kts 126°
2026-05-05 21:39 29.95946 -81.33775 173 ft 116 kts 123°
2026-05-05 21:39 29.95457 -81.32965 564 ft 125 kts 124°
2026-05-05 21:39 29.94956 -81.32149 998 ft 133 kts 126°
2026-05-05 21:40 29.94453 -81.31303 1563 ft 132 kts 123°
2026-05-05 21:40 29.93895 -81.30364 1902 ft 147 kts 124°
2026-05-05 21:40 29.93038 -81.29736 2580 ft 153 kts 165°
2026-05-05 21:40 29.91978 -81.29469 3272 ft 159 kts 166°
2026-05-05 21:41 29.90907 -81.29128 3906 ft 161 kts 166°
2026-05-05 21:41 29.89833 -81.28729 4539 ft 163 kts 166°
2026-05-05 21:41 29.88730 -81.28343 4988 ft 173 kts 171°
2026-05-05 21:41 29.87467 -81.28040 5004 ft 197 kts 171°
2026-05-05 21:42 29.86083 -81.27639 5010 ft 213 kts 169°
2026-05-05 21:42 29.84617 -81.27196 5008 ft 223 kts 169°
2026-05-05 21:42 29.83089 -81.26747 5010 ft 230 kts 169°
2026-05-05 21:42 29.81507 -81.26287 5012 ft 238 kts 169°
2026-05-05 21:43 29.79910 -81.25805 5006 ft 241 kts 168°
2026-05-05 21:43 29.78289 -81.25323 5004 ft 239 kts 169°
2026-05-05 21:43 29.76676 -81.24863 5004 ft 238 kts 169°
2026-05-05 21:43 29.75078 -81.24391 5005 ft 237 kts 168°
2026-05-05 21:44 29.73484 -81.23903 5008 ft 238 kts 168°
2026-05-05 21:44 29.71867 -81.23439 5009 ft 242 kts 169°
2026-05-05 21:44 29.70229 -81.22976 5001 ft 242 kts 169°
2026-05-05 21:44 29.68597 -81.22487 5004 ft 242 kts 168°
2026-05-05 21:45 29.66962 -81.21987 5001 ft 243 kts 168°
2026-05-05 21:45 29.65324 -81.21503 4996 ft 242 kts 169°
2026-05-05 21:45 29.63700 -81.21047 4996 ft 239 kts 168°
2026-05-05 21:45 29.62115 -81.20579 4995 ft 237 kts 169°
2026-05-05 21:46 29.60500 -81.20098 4993 ft 237 kts 168°
2026-05-05 21:46 29.58922 -81.19631 4992 ft 237 kts 169°
2026-05-05 21:46 29.57304 -81.19169 5000 ft 238 kts 169°
2026-05-05 21:46 29.55712 -81.18703 4996 ft 239 kts 169°
2026-05-05 21:47 29.54102 -81.18228 4997 ft 239 kts 169°
2026-05-05 21:47 29.52492 -81.17751 4992 ft 238 kts 169°
2026-05-05 21:47 29.50892 -81.17281 5001 ft 238 kts 169°
2026-05-05 21:47 29.49286 -81.16817 4997 ft 238 kts 169°
2026-05-05 21:48 29.47678 -81.16342 4994 ft 237 kts 168°
2026-05-05 21:48 29.46089 -81.15868 4992 ft 236 kts 169°
2026-05-05 21:48 29.44496 -81.15409 4994 ft 235 kts 169°
2026-05-05 21:48 29.42913 -81.14953 5001 ft 235 kts 169°
2026-05-05 21:49 29.41325 -81.14481 4999 ft 237 kts 169°
2026-05-05 21:49 29.39720 -81.14008 5000 ft 239 kts 168°
2026-05-05 21:49 29.38121 -81.13545 4995 ft 240 kts 169°
2026-05-05 21:49 29.36492 -81.13083 4991 ft 242 kts 169°
2026-05-05 21:50 29.34861 -81.12595 4993 ft 242 kts 168°
2026-05-05 21:50 29.33238 -81.12116 4986 ft 240 kts 169°
2026-05-05 21:50 29.31627 -81.11648 4993 ft 240 kts 169°
2026-05-05 21:50 29.30015 -81.11155 4994 ft 240 kts 165°
2026-05-05 21:51 29.28429 -81.10506 4991 ft 241 kts 163°
2026-05-05 21:51 29.26854 -81.09860 4991 ft 239 kts 163°
2026-05-05 21:51 29.25278 -81.09238 4991 ft 239 kts 164°
2026-05-05 21:51 29.23712 -81.08605 5001 ft 238 kts 163°
2026-05-05 21:52 29.20582 -81.07347 5002 ft 239 kts 164°
2026-05-05 21:52 29.19008 -81.06715 5004 ft 239 kts 163°
2026-05-05 21:52 29.17439 -81.06077 4999 ft 239 kts 163°
2026-05-05 21:53 29.15890 -81.05451 4998 ft 238 kts 164°
2026-05-05 21:53 29.14324 -81.04826 5001 ft 239 kts 164°
2026-05-05 21:53 29.12746 -81.04194 5000 ft 240 kts 164°
2026-05-05 21:53 29.11171 -81.03560 4999 ft 240 kts 164°
2026-05-05 21:54 29.09595 -81.02928 4995 ft 240 kts 164°
2026-05-05 21:54 29.08015 -81.02295 4994 ft 241 kts 164°
2026-05-05 21:54 29.06435 -81.01657 4993 ft 241 kts 164°
2026-05-05 21:54 29.04865 -81.01025 4986 ft 238 kts 164°
2026-05-05 21:55 29.03309 -81.00405 4987 ft 236 kts 164°
2026-05-05 21:55 29.01755 -80.99775 4993 ft 238 kts 163°
2026-05-05 21:55 29.00186 -80.99150 4990 ft 240 kts 164°
2026-05-05 21:55 28.98612 -80.98522 4988 ft 239 kts 163°
2026-05-05 21:56 28.97046 -80.97889 4992 ft 238 kts 163°
2026-05-05 21:56 28.95479 -80.97264 4989 ft 238 kts 163°
2026-05-05 21:56 28.93911 -80.96642 4997 ft 240 kts 164°
2026-05-05 21:56 28.92323 -80.96008 4991 ft 242 kts 163°
2026-05-05 21:57 28.90757 -80.95371 4988 ft 240 kts 163°
2026-05-05 21:57 28.89183 -80.94739 4983 ft 239 kts 164°
2026-05-05 21:57 28.87613 -80.94117 4987 ft 238 kts 164°
2026-05-05 21:57 28.86052 -80.93495 4983 ft 237 kts 164°
2026-05-05 21:58 28.84492 -80.92869 4982 ft 237 kts 164°
2026-05-05 21:58 28.82955 -80.92255 4981 ft 236 kts 164°
2026-05-05 21:58 28.81402 -80.91637 4979 ft 236 kts 164°
2026-05-05 21:58 28.79852 -80.91017 4977 ft 236 kts 163°
2026-05-05 21:59 28.78299 -80.90395 4965 ft 236 kts 164°
2026-05-05 21:59 28.76743 -80.89777 4969 ft 237 kts 164°
2026-05-05 21:59 28.75187 -80.89154 4966 ft 237 kts 163°
2026-05-05 21:59 28.73631 -80.88534 4964 ft 237 kts 163°
2026-05-05 22:00 28.72074 -80.87919 4962 ft 237 kts 164°
2026-05-05 22:00 28.70513 -80.87313 4963 ft 237 kts 164°
2026-05-05 22:00 28.68947 -80.86703 4959 ft 237 kts 164°
2026-05-05 22:00 28.67402 -80.86090 4963 ft 238 kts 163°
2026-05-05 22:01 28.65844 -80.85460 4958 ft 237 kts 163°
2026-05-05 22:01 28.64288 -80.84836 4992 ft 237 kts 163°
2026-05-05 22:01 28.62729 -80.84214 4990 ft 237 kts 163°
2026-05-05 22:01 28.61177 -80.83591 4997 ft 238 kts 163°
2026-05-05 22:02 28.59599 -80.82956 5006 ft 241 kts 163°
2026-05-05 22:02 28.58005 -80.82324 4996 ft 243 kts 163°
2026-05-05 22:02 28.56414 -80.81694 4998 ft 242 kts 163°
2026-05-05 22:02 28.54828 -80.81059 4999 ft 241 kts 162°
2026-05-05 22:03 28.53242 -80.80423 4998 ft 241 kts 163°
2026-05-05 22:03 28.52197 -80.80006 4992 ft 239 kts 162°
2026-05-05 22:03 28.50117 -80.79178 4996 ft 240 kts 163°
2026-05-05 22:03 28.48545 -80.78556 4995 ft 239 kts 163°
2026-05-05 22:04 28.46977 -80.77933 4993 ft 239 kts 162°
2026-05-05 22:04 28.45404 -80.77309 5000 ft 240 kts 163°
2026-05-05 22:04 28.43826 -80.76688 5000 ft 240 kts 162°
2026-05-05 22:04 28.42248 -80.76058 5001 ft 241 kts 162°
2026-05-05 22:05 28.41199 -80.75644 4998 ft 241 kts 162°
2026-05-05 22:05 28.39611 -80.75017 5009 ft 243 kts 162°
2026-05-05 22:05 28.37990 -80.74378 4985 ft 248 kts 162°
2026-05-05 22:05 28.36368 -80.73729 4987 ft 247 kts 162°
2026-05-05 22:06 28.34741 -80.73091 4969 ft 249 kts 163°
2026-05-05 22:06 28.33094 -80.72459 4967 ft 250 kts 163°
2026-05-05 22:06 28.31453 -80.71794 4955 ft 250 kts 161°
2026-05-05 22:06 28.29830 -80.71119 4955 ft 247 kts 162°
2026-05-05 22:07 28.28202 -80.70493 4949 ft 246 kts 163°
2026-05-05 22:07 28.26595 -80.69875 4949 ft 243 kts 162°
2026-05-05 22:07 28.25006 -80.69242 4947 ft 241 kts 162°
2026-05-05 22:07 28.23440 -80.68623 4945 ft 240 kts 162°
2026-05-05 22:08 28.21860 -80.67999 4945 ft 241 kts 162°
2026-05-05 22:08 28.20275 -80.67375 4949 ft 241 kts 162°
2026-05-05 22:08 28.18686 -80.66748 4954 ft 242 kts 162°
2026-05-05 22:08 28.17094 -80.66120 4968 ft 242 kts 162°
2026-05-05 22:09 28.15502 -80.65497 4973 ft 241 kts 162°
2026-05-05 22:09 28.13921 -80.64869 4972 ft 241 kts 162°
2026-05-05 22:09 28.12337 -80.64245 4972 ft 241 kts 162°
2026-05-05 22:09 28.10760 -80.63606 4972 ft 241 kts 159°
2026-05-05 22:10 28.09329 -80.62608 4971 ft 243 kts 146°
2026-05-05 22:10 28.07936 -80.61520 4972 ft 244 kts 148°
2026-05-05 22:10 28.06519 -80.60454 4977 ft 244 kts 147°
2026-05-05 22:10 28.05105 -80.59367 4977 ft 246 kts 147°
2026-05-05 22:11 28.03696 -80.58278 4976 ft 246 kts 147°
2026-05-05 22:11 28.02272 -80.57186 4974 ft 247 kts 147°
2026-05-05 22:11 28.00855 -80.56097 4969 ft 245 kts 147°
2026-05-05 22:11 27.99446 -80.55021 4964 ft 243 kts 147°
2026-05-05 22:12 27.98057 -80.53955 4967 ft 241 kts 147°
2026-05-05 22:12 27.96692 -80.52904 4962 ft 240 kts 147°
2026-05-05 22:12 27.95313 -80.51845 4965 ft 239 kts 147°
2026-05-05 22:12 27.93952 -80.50800 5113 ft 232 kts 147°
2026-05-05 22:13 27.92632 -80.49791 5353 ft 226 kts 147°
2026-05-05 22:13 27.91341 -80.48802 5595 ft 223 kts 147°
2026-05-05 22:13 27.90063 -80.47822 5837 ft 221 kts 148°
2026-05-05 22:13 27.88793 -80.46849 6088 ft 220 kts 148°
2026-05-05 22:14 27.87518 -80.45875 6339 ft 221 kts 149°
2026-05-05 22:14 27.86251 -80.44904 6585 ft 221 kts 149°
2026-05-05 22:14 27.84968 -80.43915 6814 ft 223 kts 148°
2026-05-05 22:14 27.83682 -80.42934 7050 ft 223 kts 149°
2026-05-05 22:15 27.82406 -80.41966 7288 ft 223 kts 149°
2026-05-05 22:15 27.81120 -80.40981 7532 ft 223 kts 149°
2026-05-05 22:15 27.79831 -80.39993 7774 ft 224 kts 149°
2026-05-05 22:15 27.78541 -80.39008 8014 ft 224 kts 149°
2026-05-05 22:16 27.77250 -80.38020 8259 ft 224 kts 149°
2026-05-05 22:16 27.75956 -80.37034 8507 ft 224 kts 149°
2026-05-05 22:16 27.74658 -80.36042 8757 ft 225 kts 149°
2026-05-05 22:16 27.73359 -80.35052 9005 ft 226 kts 149°
2026-05-05 22:17 27.72078 -80.34074 9254 ft 226 kts 149°
2026-05-05 22:17 27.70774 -80.33079 9506 ft 227 kts 149°
2026-05-05 22:17 27.69462 -80.32079 9769 ft 227 kts 149°
2026-05-05 22:17 27.68149 -80.31078 10017 ft 228 kts 149°
2026-05-05 22:18 27.66829 -80.30072 10246 ft 229 kts 149°
2026-05-05 22:18 27.65506 -80.29064 10478 ft 230 kts 149°
2026-05-05 22:18 27.64179 -80.28053 10712 ft 231 kts 149°
2026-05-05 22:18 27.62847 -80.27039 10945 ft 232 kts 149°
2026-05-05 22:19 27.61481 -80.26001 10975 ft 242 kts 149°
2026-05-05 22:19 27.60061 -80.24921 10975 ft 249 kts 149°
2026-05-05 22:19 27.58609 -80.23815 10979 ft 254 kts 149°
2026-05-05 22:19 27.57155 -80.22709 10981 ft 257 kts 149°
2026-05-05 22:20 27.55669 -80.21578 10979 ft 259 kts 149°
2026-05-05 22:20 27.54168 -80.20438 10976 ft 261 kts 149°
2026-05-05 22:20 27.52642 -80.19277 10982 ft 262 kts 149°
2026-05-05 22:20 27.51148 -80.18142 10980 ft 262 kts 149°
2026-05-05 22:21 27.49637 -80.16994 10980 ft 262 kts 149°
2026-05-05 22:21 27.48119 -80.15843 10982 ft 263 kts 149°
2026-05-05 22:21 27.46607 -80.14683 10979 ft 263 kts 147°
2026-05-05 22:21 27.45151 -80.13428 10976 ft 263 kts 146°
2026-05-05 22:22 27.43689 -80.12187 10974 ft 263 kts 146°
2026-05-05 22:22 27.42224 -80.10948 10977 ft 263 kts 146°
2026-05-05 22:22 27.40762 -80.09706 10970 ft 263 kts 146°
2026-05-05 22:22 27.39332 -80.08413 10967 ft 265 kts 138°
2026-05-05 22:23 27.38214 -80.06757 10966 ft 267 kts 125°
2026-05-05 22:23 27.37190 -80.05013 10967 ft 267 kts 126°
2026-05-05 22:23 27.36161 -80.03301 10967 ft 267 kts 126°
2026-05-05 22:23 27.35125 -80.01564 10968 ft 267 kts 126°
2026-05-05 22:24 27.34093 -79.99828 10966 ft 267 kts 126°
2026-05-05 22:24 27.33054 -79.98081 10965 ft 268 kts 126°
2026-05-05 22:24 27.32019 -79.96343 10968 ft 268 kts 126°
2026-05-05 22:24 27.30982 -79.94605 10965 ft 268 kts 126°
2026-05-05 22:25 27.29944 -79.92862 10968 ft 268 kts 126°
2026-05-05 22:25 27.28907 -79.91124 10969 ft 268 kts 126°
2026-05-05 22:25 27.27870 -79.89386 10964 ft 268 kts 126°
2026-05-05 22:25 27.26833 -79.87648 10967 ft 268 kts 126°
2026-05-05 22:26 27.25809 -79.85934 10968 ft 268 kts 126°
2026-05-05 22:26 27.24771 -79.84196 10966 ft 268 kts 126°
2026-05-05 22:26 27.23732 -79.82458 10966 ft 268 kts 126°
2026-05-05 22:26 27.22693 -79.80719 10969 ft 268 kts 126°
2026-05-05 22:27 27.21653 -79.78979 10970 ft 268 kts 126°
2026-05-05 22:27 27.20610 -79.77236 10968 ft 268 kts 126°
2026-05-05 22:27 27.19569 -79.75497 10967 ft 268 kts 126°
2026-05-05 22:27 27.18528 -79.73758 10968 ft 268 kts 126°
2026-05-05 22:28 27.17486 -79.72019 10967 ft 268 kts 126°
2026-05-05 22:28 27.16442 -79.70276 10966 ft 268 kts 126°
2026-05-05 22:28 27.15401 -79.68538 10966 ft 268 kts 126°
2026-05-05 22:28 27.14360 -79.66805 10963 ft 268 kts 126°
2026-05-05 22:29 27.13319 -79.65067 10966 ft 268 kts 126°
2026-05-05 22:29 27.12276 -79.63330 10966 ft 268 kts 126°
2026-05-05 22:29 27.11233 -79.61593 10966 ft 268 kts 126°
2026-05-05 22:29 27.10202 -79.59876 10967 ft 268 kts 126°
2026-05-05 22:30 27.09159 -79.58140 10964 ft 268 kts 126°
2026-05-05 22:30 27.08116 -79.56404 10964 ft 268 kts 126°
2026-05-05 22:30 27.07071 -79.54666 10966 ft 268 kts 127°
2026-05-05 22:30 27.06028 -79.52933 10964 ft 268 kts 127°
2026-05-05 22:31 27.04984 -79.51197 10969 ft 268 kts 127°
2026-05-05 22:31 27.03941 -79.49466 10965 ft 268 kts 127°
2026-05-05 22:31 27.02899 -79.47735 10967 ft 268 kts 127°
2026-05-05 22:31 27.01855 -79.46001 10964 ft 268 kts 127°
2026-05-05 22:32 27.00811 -79.44272 10957 ft 268 kts 127°
2026-05-05 22:32 26.99768 -79.42542 10965 ft 268 kts 127°
2026-05-05 22:32 26.98727 -79.40815 10962 ft 268 kts 127°
2026-05-05 22:32 26.97695 -79.39104 10961 ft 268 kts 127°
2026-05-05 22:33 26.96639 -79.37355 10961 ft 268 kts 127°
2026-05-05 22:33 26.95607 -79.35645 10963 ft 268 kts 127°
2026-05-05 22:33 26.94562 -79.33917 10962 ft 268 kts 127°
2026-05-05 22:33 26.93518 -79.32187 10963 ft 268 kts 127°
2026-05-05 22:34 26.92472 -79.30459 10963 ft 268 kts 127°
2026-05-05 22:34 26.91427 -79.28731 10957 ft 268 kts 127°
2026-05-05 22:34 26.90381 -79.27003 10958 ft 268 kts 127°
2026-05-05 22:34 26.89333 -79.25271 10956 ft 268 kts 127°
2026-05-05 22:35 26.88289 -79.23548 10958 ft 268 kts 127°
2026-05-05 22:35 26.87242 -79.21818 10959 ft 268 kts 127°
2026-05-05 22:35 26.86196 -79.20092 10960 ft 268 kts 127°
2026-05-05 22:35 26.85150 -79.18367 10959 ft 268 kts 127°
2026-05-05 22:36 26.84104 -79.16642 10960 ft 268 kts 127°
2026-05-05 22:36 26.83054 -79.14913 10958 ft 268 kts 127°
2026-05-05 22:36 26.82010 -79.13190 10960 ft 268 kts 127°
2026-05-05 22:36 26.80960 -79.11463 10959 ft 268 kts 127°
2026-05-05 22:37 26.79909 -79.09731 10959 ft 268 kts 127°
2026-05-05 22:37 26.78861 -79.08008 10963 ft 268 kts 127°
2026-05-05 22:37 26.77809 -79.06276 10958 ft 268 kts 127°
2026-05-05 22:37 26.76759 -79.04550 10958 ft 268 kts 127°
2026-05-05 22:38 26.75709 -79.02823 10962 ft 268 kts 127°
2026-05-05 22:38 26.74659 -79.01097 10962 ft 268 kts 127°
2026-05-05 22:38 26.73608 -78.99372 10961 ft 268 kts 127°
2026-05-05 22:38 26.72558 -78.97647 10962 ft 268 kts 127°
2026-05-05 22:39 26.71508 -78.95924 10958 ft 268 kts 127°
2026-05-05 22:39 26.70458 -78.94200 10960 ft 268 kts 127°
2026-05-05 22:39 26.69409 -78.92481 10956 ft 268 kts 127°
2026-05-05 22:39 26.68374 -78.90784 10958 ft 267 kts 127°
2026-05-05 22:40 26.67326 -78.89067 10957 ft 267 kts 127°
2026-05-05 22:40 26.66279 -78.87350 10957 ft 267 kts 127°
2026-05-05 22:40 26.65231 -78.85635 10955 ft 267 kts 127°
2026-05-05 22:40 26.64183 -78.83919 10957 ft 267 kts 127°
2026-05-05 22:41 26.63135 -78.82205 10958 ft 267 kts 127°
2026-05-05 22:41 26.62085 -78.80487 10957 ft 267 kts 127°
2026-05-05 22:41 26.61037 -78.78773 10956 ft 267 kts 127°
2026-05-05 22:41 26.59986 -78.77055 10958 ft 267 kts 127°
2026-05-05 22:42 26.58940 -78.75346 10956 ft 267 kts 127°
2026-05-05 22:42 26.57891 -78.73632 10954 ft 267 kts 127°
2026-05-05 22:42 26.56841 -78.71919 10956 ft 267 kts 127°
2026-05-05 22:42 26.55773 -78.70223 10954 ft 266 kts 132°
2026-05-05 22:43 26.54436 -78.68866 10952 ft 262 kts 148°
2026-05-05 22:43 26.52962 -78.67662 10953 ft 262 kts 147°
2026-05-05 22:43 26.51502 -78.66436 10956 ft 263 kts 147°
2026-05-05 22:43 26.50036 -78.65211 10953 ft 263 kts 147°
2026-05-05 22:44 26.48567 -78.63996 10952 ft 263 kts 147°
2026-05-05 22:44 26.47101 -78.62780 10948 ft 262 kts 147°
2026-05-05 22:44 26.45634 -78.61561 10954 ft 262 kts 147°
2026-05-05 22:44 26.44171 -78.60347 10951 ft 262 kts 147°
2026-05-05 22:45 26.42708 -78.59134 10951 ft 262 kts 147°
2026-05-05 22:45 26.41245 -78.57921 10950 ft 262 kts 147°
2026-05-05 22:45 26.39783 -78.56709 10950 ft 262 kts 147°
2026-05-05 22:45 26.38317 -78.55495 10950 ft 262 kts 147°
2026-05-05 22:46 26.36857 -78.54285 10947 ft 262 kts 147°
2026-05-05 22:46 26.35410 -78.53087 10949 ft 262 kts 147°
2026-05-05 22:46 26.33946 -78.51875 10948 ft 262 kts 147°
2026-05-05 22:46 26.32483 -78.50663 10942 ft 262 kts 148°
2026-05-05 22:47 26.31018 -78.49453 10945 ft 262 kts 148°
2026-05-05 22:47 26.29553 -78.48240 10946 ft 262 kts 147°
2026-05-05 22:47 26.28087 -78.47029 10942 ft 262 kts 148°
2026-05-05 22:47 26.26620 -78.45816 10942 ft 263 kts 148°
2026-05-05 22:48 26.25152 -78.44603 10942 ft 263 kts 148°
2026-05-05 22:48 26.23683 -78.43390 10942 ft 263 kts 147°
2026-05-05 22:48 26.22212 -78.42174 10938 ft 263 kts 148°
2026-05-05 22:48 26.20744 -78.40963 10936 ft 263 kts 148°
2026-05-05 22:49 26.19275 -78.39751 10936 ft 263 kts 148°
2026-05-05 22:49 26.17824 -78.38555 10933 ft 263 kts 148°
2026-05-05 22:49 26.16355 -78.37342 10934 ft 263 kts 148°
2026-05-05 22:49 26.14886 -78.36131 10932 ft 263 kts 148°
2026-05-05 22:50 26.13415 -78.34918 10935 ft 263 kts 148°
2026-05-05 22:50 26.11946 -78.33709 10935 ft 263 kts 148°
2026-05-05 22:50 26.10477 -78.32498 10934 ft 263 kts 148°
2026-05-05 22:50 26.09009 -78.31290 10936 ft 263 kts 148°
2026-05-05 22:51 26.07539 -78.30080 10935 ft 263 kts 148°
2026-05-05 22:51 26.06069 -78.28870 10936 ft 263 kts 148°
2026-05-05 22:51 26.04583 -78.27693 10932 ft 259 kts 155°
2026-05-05 22:51 26.02979 -78.26790 10937 ft 260 kts 152°
2026-05-05 22:52 26.01524 -78.25580 10939 ft 263 kts 146°
2026-05-05 22:52 26.00094 -78.24304 10933 ft 263 kts 147°
2026-05-05 22:52 25.98614 -78.23132 10989 ft 259 kts 151°
2026-05-05 22:52 25.97130 -78.22034 10992 ft 260 kts 151°
2026-05-05 22:53 25.95633 -78.20896 10994 ft 261 kts 150°
2026-05-05 22:53 25.94141 -78.19742 10994 ft 262 kts 150°
2026-05-05 22:53 25.92644 -78.18589 10992 ft 262 kts 150°
2026-05-05 22:53 25.91143 -78.17438 10994 ft 262 kts 150°
2026-05-05 22:54 25.89638 -78.16285 10991 ft 262 kts 150°
2026-05-05 22:54 25.88138 -78.15134 10992 ft 262 kts 150°
2026-05-05 22:54 25.86643 -78.13986 10992 ft 262 kts 150°
2026-05-05 22:54 25.85649 -78.13225 10990 ft 262 kts 150°
2026-05-05 22:55 25.84151 -78.12076 10989 ft 262 kts 150°
2026-05-05 22:55 25.82651 -78.10928 10988 ft 262 kts 150°
2026-05-05 22:55 25.81151 -78.09779 10988 ft 262 kts 150°
2026-05-05 22:55 25.79648 -78.08628 10987 ft 262 kts 150°
2026-05-05 22:56 25.78148 -78.07479 10985 ft 262 kts 150°
2026-05-05 22:56 25.76646 -78.06332 10988 ft 262 kts 150°
2026-05-05 22:56 25.75145 -78.05182 10986 ft 262 kts 150°
2026-05-05 22:56 25.73644 -78.04035 10988 ft 262 kts 150°
2026-05-05 22:57 25.72158 -78.02899 10990 ft 262 kts 150°
2026-05-05 22:57 25.70655 -78.01751 10984 ft 262 kts 150°
2026-05-05 22:57 25.69150 -78.00599 10983 ft 262 kts 150°
2026-05-05 22:57 25.67647 -77.99452 10983 ft 262 kts 150°
2026-05-05 22:58 25.66138 -77.98299 10983 ft 262 kts 150°
2026-05-05 22:58 25.64637 -77.97155 10984 ft 262 kts 150°
2026-05-05 22:58 25.63134 -77.96007 10983 ft 262 kts 150°
2026-05-05 22:58 25.61629 -77.94859 10983 ft 263 kts 150°
2026-05-05 22:59 25.60144 -77.93727 10982 ft 263 kts 150°
2026-05-05 22:59 25.58639 -77.92579 10985 ft 263 kts 150°
2026-05-05 22:59 25.57131 -77.91430 10982 ft 262 kts 150°
2026-05-05 22:59 25.55624 -77.90282 10982 ft 262 kts 150°
2026-05-05 23:00 25.52615 -77.87991 10986 ft 263 kts 150°
2026-05-05 23:00 25.51111 -77.86844 10988 ft 263 kts 150°
2026-05-05 23:00 25.49587 -77.85688 10810 ft 269 kts 150°
2026-05-05 23:01 25.48021 -77.84497 10486 ft 277 kts 150°
2026-05-05 23:01 25.46416 -77.83276 10126 ft 282 kts 149°
2026-05-05 23:01 25.44791 -77.82038 9734 ft 284 kts 149°
2026-05-05 23:01 25.43162 -77.80799 9350 ft 284 kts 149°
2026-05-05 23:02 25.41537 -77.79566 8971 ft 283 kts 149°
2026-05-05 23:02 25.39918 -77.78336 8596 ft 282 kts 149°
2026-05-05 23:02 25.38305 -77.77112 8220 ft 280 kts 148°
2026-05-05 23:02 25.36705 -77.75895 7849 ft 278 kts 148°
2026-05-05 23:03 25.35112 -77.74690 7485 ft 276 kts 148°
2026-05-05 23:03 25.33532 -77.73489 7122 ft 275 kts 148°
2026-05-05 23:03 25.31980 -77.72313 6766 ft 273 kts 148°
2026-05-05 23:03 25.30412 -77.71126 6406 ft 272 kts 148°
2026-05-05 23:04 25.28861 -77.69948 6033 ft 270 kts 148°
2026-05-05 23:04 25.27313 -77.68777 5679 ft 269 kts 148°
2026-05-05 23:04 25.25776 -77.67614 5322 ft 267 kts 147°
2026-05-05 23:04 25.24245 -77.66456 4966 ft 265 kts 147°
2026-05-05 23:05 25.22721 -77.65300 4612 ft 265 kts 147°
2026-05-05 23:05 25.21207 -77.64155 4259 ft 263 kts 147°
2026-05-05 23:05 25.19700 -77.63018 3920 ft 262 kts 147°
2026-05-05 23:05 25.18205 -77.61886 3577 ft 260 kts 146°
2026-05-05 23:06 25.16883 -77.60575 3237 ft 258 kts 134°
2026-05-05 23:06 25.15645 -77.59144 2895 ft 257 kts 135°
2026-05-05 23:06 25.14369 -77.57776 2558 ft 255 kts 136°
2026-05-05 23:06 25.13142 -77.56431 2221 ft 237 kts 134°
2026-05-05 23:07 25.12032 -77.55200 1914 ft 214 kts 133°
2026-05-05 23:07 25.11062 -77.54121 1649 ft 186 kts 132°
2026-05-05 23:07 25.10228 -77.53195 1606 ft 161 kts 132°
2026-05-05 23:07 25.09451 -77.52324 1586 ft 159 kts 131°
2026-05-05 23:08 25.08731 -77.51484 1277 ft 143 kts 132°
2026-05-05 23:08 25.08053 -77.50762 989 ft 130 kts 134°
2026-05-05 23:08 25.07420 -77.50085 710 ft 124 kts 134°
2026-05-05 23:08 25.06869 -77.49432 592 ft 108 kts 135°
2026-05-05 23:09 25.06360 -77.48862 466 ft 101 kts 137°
2026-05-05 23:09 25.05858 -77.48320 360 ft 104 kts 136°
2026-05-05 23:09 25.05344 -77.47738 127 ft 102 kts 135°
2026-05-05 23:09 25.04899 -77.47238 17 ft 82 kts 135°
2026-05-05 23:10 25.04546 -77.46860 18 ft 58 kts 134°
2026-05-05 23:10 25.04296 -77.46582 17 ft 41 kts 135°
2026-05-05 23:10 25.04147 -77.46361 16 ft 29 kts 114°
2026-05-05 23:10 25.04104 -77.46219 17 ft 12 kts 105°
2026-05-05 23:11 25.04175 -77.46173 17 ft 7 kts
2026-05-05 23:11 25.04220 -77.46110 17 ft 14 kts 59°
2026-05-05 23:11 25.04268 -77.45988 17 ft 17 kts 69°
2026-05-05 23:11 25.04303 -77.45947 17 ft 0 kts 345°